Погода в Мстиславле

Беларусь     54°01′10″N   31°43′29″E
темп.,
°C
ветер,
м/с
пор.,
м/с
влажн.,
%
обл.,
%
осадки,
мм/ч
давл.,
гПа
погр.,
м
24 июля, сб
сб2400:00+14зсз34890 0.0 101250
03:00+13сз22939 0.0 101322
06:00+13сз11930 0.0 101317
09:00+19ссз22690 0.0 1014401
12:00+22с11523 0.1 10141595
15:00+22св435098 0.1 10151169
18:00+21всв2459100 0.0 1016389
21:00+18в236755 0.0 101732
25 июля, вс
вс2500:00+14вюв33768 0.0 101828
03:00+13вюв22820 0.0 101920
06:00+13юв33817 0.0 102051
09:00+20юв34590 0.0 1020359
12:00+24вюв32410 0.0 10201952
15:00+26в113858 0.0 10202309
18:00+24вюв2352100 0.0 102099
21:00+20юв356147 0.0 1021103
26 июля, пн
пн2600:00+18ююв367390 0.0 1022134
03:00+16ююв228584 0.1 102325
06:00+17юв238251 0.0 102358
09:00+21ююв346721 0.0 1023457
12:00+25ююв44505 0.0 10231323
15:00+26ююв444832 0.0 10221572
18:00+22сз2267100 0.1 102254
21:00+19всв238560 1.9 102248
27 июля, вт
вт2700:00+18ююв348322 0.3 102352
03:00+16ю34925 0.3 102350
06:00+16ююв34921 0.0 102382
09:00+21ююв46665 0.0 1023393
12:00+26ююв56460 0.0 10221207
15:00+28ю67394 0.0 10212379
18:00+27ю57452 0.0 10201301
21:00+21юв41066100 0.0 1019183
28 июля, ср
ср2800:00+19юв51366100 0.0 1019263
03:00+20ююв5145888 0.0 1018374
06:00+19ююв5135887 0.0 1017434
09:00+21ююв61461100 0.2 1015481
12:00+23ююв71253100 0.0 1013832
15:00+28ю8124864 0.3 10101851
18:00+27ю475673 0.0 1007229
21:00+19ю71394100 6.8 1009436